Weather reports worldwide

Advertisment
Nottingham/Watnall, United Kingdom (3354): temperature & dewpoint: 19.02.2020 09:00:00 - 25.02.2020 09:00:00 (GMT)Nottingham/Watnall, United Kingdom (3354): temperature -20cm & temperature -100cm: 19.02.2020 09:00:00 - 25.02.2020 09:00:00 (GMT)Nottingham/Watnall, United Kingdom (3354): wind speed & gusts: 19.02.2020 09:00:00 - 25.02.2020 09:00:00 (GMT)Nottingham/Watnall, United Kingdom (3354): wind direction: 19.02.2020 09:00:00 - 25.02.2020 09:00:00 (GMT)Nottingham/Watnall, United Kingdom (3354): reduced air pressure: 19.02.2020 09:00:00 - 25.02.2020 09:00:00 (GMT)Nottingham/Watnall, United Kingdom (3354): visibility: 19.02.2020 09:00:00 - 25.02.2020 09:00:00 (GMT)Nottingham/Watnall, United Kingdom (3354): sunshine duration: 19.02.2020 09:00:00 - 25.02.2020 09:00:00 (GMT)Nottingham/Watnall, United Kingdom (3354): precipitation: 19.02.2020 09:00:00 - 25.02.2020 09:00:00 (GMT)
Date & Time tt [°C] td [°C] tt -20cm [°C] tt -100cm [°C] ff [km/h] ff [kn] fx [km/h] fx [kn] dd ppp [hPa] vv [km] sd [min] rr [mm]
25.02.2020 09:00:00 4,4 1,3 - - 22 12 - - WSW 998,4 40 48 -
25.02.2020 08:00:00 3,2 1,6 - - 16 9 - - WSW 998,7 45 6 0,0
25.02.2020 07:00:00 3,2 1,3 - - 22 12 - - WSW 999,0 11 0 0,0
25.02.2020 06:00:00 2,7 0,7 - - 15 8 - - WSW 999,6 35 0 0,0
25.02.2020 05:00:00 3,0 0,9 - - 18 10 46 25 WSW 1000,1 28 0 0,0
25.02.2020 04:00:00 3,4 0,7 - - 21 11 - - WSW 1000,8 17 0 0,0
25.02.2020 03:00:00 3,2 0,2 - - 21 11 - - W 1001,1 35 0 0,0
25.02.2020 02:00:00 3,8 0,9 - - 21 11 - - WSW 1001,5 40 0 0,0
25.02.2020 01:00:00 4,3 0,6 - - 21 11 - - W 1001,9 45 0 0,0
25.02.2020 00:00:00 4,7 0,8 - - 22 12 - - W 1002,0 45 - 0,0
24.02.2020 23:00:00 5,3 0,9 - - 24 13 54 29 W 1001,7 35 0 0,0
24.02.2020 22:00:00 5,8 1,0 - - 26 14 63 34 W 1001,5 35 0 0,0
24.02.2020 21:00:00 6,2 1,1 - - 28 15 59 32 W 1001,4 35 0 0,0
24.02.2020 20:00:00 6,8 0,9 - - 34 18 63 34 W 1001,5 45 0 0,0
24.02.2020 19:00:00 7,3 0,7 - - 35 19 65 35 W 1001,7 35 0 0,0
24.02.2020 18:00:00 8,6 3,8 - - 34 18 52 28 W 1000,6 35 0 0,0
24.02.2020 17:00:00 11,2 4,7 - - 34 18 59 32 W 999,0 35 0 0,0
24.02.2020 16:00:00 11,7 7,2 - - 26 14 61 33 WSW 998,5 23 0 0,0
24.02.2020 15:00:00 12,2 7,8 - - 29 16 59 32 WSW 998,6 24 0 0,0
24.02.2020 14:00:00 12,0 9,1 - - 24 13 52 28 WSW 998,5 35 0 0,0
24.02.2020 13:00:00 10,9 9,4 - - 24 13 55 30 SW 999,1 17 0 0,0
24.02.2020 12:00:00 10,3 8,8 - - 28 15 54 29 SW 1000,2 4,1 0 0,0
24.02.2020 11:00:00 9,6 8,5 - - 28 15 46 25 SW 1001,0 40 0 0,2
24.02.2020 10:00:00 9,2 8,5 - - 22 12 - - SW 1002,2 9 0 2,0
24.02.2020 09:00:00 8,2 7,9 5,9 7,2 21 11 - - SSW 1003,3 9 0 1,8
24.02.2020 08:00:00 5,7 5,4 - - 15 8 - - S 1005,1 7 0 3,8
24.02.2020 07:00:00 4,3 3,9 - - 18 10 50 27 SSE 1007,4 4,0 0 2,0
24.02.2020 06:00:00 3,6 2,9 - - 21 11 50 27 SSE 1010,5 3,2 0 0,2
24.02.2020 05:00:00 4,2 1,1 - - 22 12 - - SSE 1012,8 19 0 0,0
24.02.2020 04:00:00 4,2 0,8 - - 16 9 - - SSE 1015,8 35 0 0,0
24.02.2020 03:00:00 4,0 0,9 - - 13 7 - - S 1018,4 15 0 0,2
24.02.2020 02:00:00 4,5 0,4 - - 8 4 - - S 1020,2 28 0 0,0
24.02.2020 01:00:00 4,4 0,6 - - 5 3 - - SW 1021,3 26 0 0,0
24.02.2020 00:00:00 4,4 0,3 - - 8 4 - - SW 1021,8 24 - 0,0
23.02.2020 23:00:00 4,5 -0,3 - - 8 4 - - SW 1022,6 19 0 0,0
23.02.2020 22:00:00 5,1 0,0 - - 13 7 - - WSW 1022,5 21 0 0,0
23.02.2020 21:00:00 5,3 0,3 - - 11 6 - - W 1022,2 21 0 0,0
23.02.2020 20:00:00 5,6 0,7 - - 15 8 - - W 1022,1 16 0 0,0
23.02.2020 19:00:00 5,3 0,2 - - 16 9 - - W 1021,4 19 0 0,0
23.02.2020 18:00:00 5,8 -0,7 - - 28 15 50 27 W 1020,2 28 0 0,0
23.02.2020 17:00:00 6,4 -1,9 - - 22 12 48 26 WNW 1019,8 24 18 0,0
23.02.2020 16:00:00 7,6 -0,7 - - 22 12 46 25 WNW 1018,4 29 42 0,0
23.02.2020 15:00:00 7,9 -1,1 - - 22 12 52 28 WNW 1016,9 40 36 0,0
23.02.2020 14:00:00 7,9 -2,5 - - 31 17 57 31 WNW 1015,8 27 60 0,0
23.02.2020 13:00:00 7,7 1,7 - - 29 16 55 30 WNW 1014,1 50 18 0,0
23.02.2020 12:00:00 8,1 4,0 - - 24 13 63 34 WNW 1012,6 40 18 0,0
23.02.2020 11:00:00 8,4 5,4 - - 29 16 59 32 W 1009,6 30 6 0,0
23.02.2020 10:00:00 8,4 5,8 - - 24 13 48 26 W 1007,7 40 0 0,0
23.02.2020 09:00:00 8,5 7,6 5,7 7,2 15 8 - - W 1005,8 45 0 0,4
23.02.2020 08:00:00 7,2 6,0 - - 18 10 - - NNW 1005,3 1,2 0 2,0
23.02.2020 07:00:00 10,1 9,7 - - 22 12 - - WSW 1003,1 21 0 1,0
23.02.2020 06:00:00 7,2 6,9 - - 15 8 - - SSW 1004,1 2,9 0 2,8
23.02.2020 05:00:00 6,5 6,1 - - 11 6 - - S 1005,9 3,7 0 2,6
23.02.2020 04:00:00 6,4 5,9 - - 15 8 - - SSW 1008,2 6 0 2,6
23.02.2020 03:00:00 6,1 5,6 - - 13 7 - - SSW 1011,0 7 0 1,4
23.02.2020 02:00:00 5,9 5,2 - - 11 6 - - SW 1013,5 7 0 1,2
23.02.2020 01:00:00 6,0 4,9 - - 18 10 - - SW 1014,8 9 0 1,2
23.02.2020 00:00:00 6,4 4,9 - - 21 11 - - SW 1015,6 9 - 0,2
22.02.2020 23:00:00 7,3 4,0 - - 21 11 - - WSW 1016,5 12 0 0,0
22.02.2020 22:00:00 7,5 3,7 - - 21 11 - - WSW 1016,8 13 0 0,0
22.02.2020 21:00:00 6,9 3,4 - - 18 10 - - WSW 1016,3 15 0 0,0
22.02.2020 20:00:00 7,2 3,5 - - 22 12 48 26 WSW 1016,6 13 0 0,0
22.02.2020 19:00:00 6,9 3,7 - - 18 10 - - WSW 1016,5 18 0 0,0
22.02.2020 18:00:00 8,1 2,9 - - 21 11 - - WSW 1016,0 16 0 0,0
22.02.2020 17:00:00 8,7 2,1 - - 24 13 57 31 W 1015,8 22 0 0,0
22.02.2020 16:00:00 9,0 2,0 - - 28 15 55 30 WSW 1015,2 25 0 0,0
22.02.2020 15:00:00 9,1 2,4 - - 28 15 55 30 WSW 1014,4 21 0 0,0
22.02.2020 14:00:00 8,8 3,7 - - 24 13 57 31 WSW 1014,1 18 0 0,0
22.02.2020 13:00:00 9,0 2,4 - - 34 18 63 34 W 1013,5 20 0 0,0
22.02.2020 12:00:00 9,7 2,1 - - 31 17 61 33 W 1013,2 30 12 0,0
22.02.2020 11:00:00 9,8 2,0 - - 28 15 67 36 WSW 1012,8 21 30 0,0
22.02.2020 10:00:00 9,9 3,0 - - 37 20 68 37 W 1011,5 22 24 0,0
22.02.2020 09:00:00 9,4 5,5 5,7 7,2 35 19 63 34 W 1010,3 20 0 0,2
22.02.2020 08:00:00 9,5 6,9 - - 24 13 57 31 WSW 1008,7 30 0 1,2
22.02.2020 07:00:00 10,0 8,5 - - 29 16 57 31 WSW 1007,5 5 0 0,2
22.02.2020 06:00:00 9,7 7,8 - - 26 14 63 34 SW 1007,4 6 0 0,2
22.02.2020 05:00:00 10,3 6,8 - - 34 18 65 35 SW 1006,8 50 0 0,0
22.02.2020 04:00:00 9,8 6,7 - - 34 18 59 32 SW 1007,1 45 0 0,0
22.02.2020 03:00:00 8,7 6,8 - - 29 16 59 32 SW 1007,9 16 0 0,0
22.02.2020 02:00:00 8,8 6,8 - - 31 17 61 33 SW 1008,9 11 0 0,6
22.02.2020 01:00:00 8,8 6,5 - - 34 18 59 32 SW 1009,5 8 0 0,2
22.02.2020 00:00:00 8,8 6,2 - - 28 15 65 35 SW 1010,1 23 - 0,0
21.02.2020 23:00:00 8,8 6,0 - - 31 17 72 39 SW 1011,4 10 0 0,0
21.02.2020 22:00:00 9,6 5,4 - - 37 20 78 42 SW 1011,7 28 0 0,0
21.02.2020 21:00:00 9,5 5,2 - - 34 18 70 38 SW 1012,2 22 0 0,0
21.02.2020 20:00:00 9,5 5,7 - - 37 20 72 39 SW 1012,4 30 0 0,0
21.02.2020 19:00:00 9,3 6,0 - - 29 16 59 32 SW 1013,5 29 0 0,0
21.02.2020 18:00:00 9,4 5,8 - - 28 15 52 28 SW 1014,0 30 0 0,0
21.02.2020 17:00:00 9,5 5,7 - - 26 14 54 29 SW 1014,2 29 0 0,0
21.02.2020 16:00:00 9,7 5,6 - - 29 16 54 29 WSW 1014,5 27 0 0,0
21.02.2020 15:00:00 9,5 5,3 - - 29 16 54 29 WSW 1015,3 18 0 0,0
21.02.2020 14:00:00 9,2 4,9 - - 26 14 52 28 WSW 1015,3 16 0 0,0
21.02.2020 13:00:00 8,6 4,5 - - 26 14 52 28 SW 1015,5 15 0 0,0
21.02.2020 12:00:00 8,1 4,4 - - 24 13 - - SW 1016,1 19 0 0,0
21.02.2020 11:00:00 7,4 3,9 - - 24 13 - - SW 1016,9 18 0 0,0
21.02.2020 10:00:00 5,7 3,6 - - 16 9 46 25 SSW 1017,7 14 0 0,0
21.02.2020 09:00:00 5,4 3,2 5,2 7,2 28 15 48 26 SSW 1017,5 8 0 0,0
21.02.2020 08:00:00 5,1 2,5 - - 22 12 - - SW 1017,7 9 0 0,0
21.02.2020 07:00:00 4,3 1,7 - - 21 11 - - SW 1018,2 14 0 0,0
21.02.2020 06:00:00 4,3 1,3 - - 22 12 - - SW 1018,4 14 0 0,0
21.02.2020 05:00:00 4,3 0,9 - - 21 11 - - SW 1018,9 16 0 0,0
21.02.2020 04:00:00 4,0 0,6 - - 21 11 - - SW 1018,7 17 0 0,0
21.02.2020 03:00:00 3,7 0,4 - - 21 11 - - SW 1018,8 15 0 0,0
21.02.2020 02:00:00 3,1 -0,1 - - 15 8 - - SW 1019,2 15 0 0,0
21.02.2020 01:00:00 3,2 -0,4 - - 18 10 - - SW 1018,5 17 0 0,0
21.02.2020 00:00:00 3,2 -0,4 - - 15 8 65 35 WSW 1017,9 18 - 0,0
20.02.2020 23:00:00 3,7 -0,6 - - 21 11 - - WSW 1017,2 24 0 0,0
20.02.2020 22:00:00 3,9 -0,5 - - 24 13 48 26 WSW 1016,0 19 0 0,0
20.02.2020 21:00:00 3,3 -0,7 - - 22 12 - - WSW 1015,2 26 0 0,0
20.02.2020 20:00:00 3,8 -1,2 - - 15 8 - - WSW 1014,4 30 0 0,0
20.02.2020 19:00:00 4,1 -1,5 - - 18 10 - - W 1013,5 28 0 0,0
20.02.2020 18:00:00 4,6 -1,3 - - 22 12 46 25 W 1011,8 30 0 0,0
20.02.2020 17:00:00 4,0 0,3 - - 21 11 54 29 W 1010,1 28 18 0,2
20.02.2020 16:00:00 5,2 0,8 - - 22 12 63 34 W 1008,2 17 36 0,4
20.02.2020 15:00:00 5,3 2,1 - - 24 13 - - W 1006,2 30 12 0,0
20.02.2020 14:00:00 4,6 2,7 - - 21 11 - - W 1004,9 9 0 0,2
20.02.2020 13:00:00 4,6 2,2 - - 22 12 54 29 WNW 1003,7 45 0 0,6
20.02.2020 12:00:00 6,4 3,8 - - 34 18 57 31 W 1001,9 6 0 2,4
20.02.2020 11:00:00 9,8 7,6 - - 31 17 59 32 SW 999,1 3,8 0 0,0
20.02.2020 10:00:00 9,3 7,0 - - 29 16 61 33 SSW 1000,2 18 0 0,0
20.02.2020 09:00:00 9,2 6,3 5,4 7,2 31 17 52 28 SSW 1000,9 50 0 0,0
20.02.2020 08:00:00 8,5 6,3 - - 24 13 54 29 SSW 1001,9 45 0 0,0
20.02.2020 07:00:00 8,1 6,3 - - 24 13 46 25 SSW 1002,4 45 0 0,0
20.02.2020 06:00:00 7,8 6,1 - - 16 9 - - SSW 1003,6 45 0 0,0
20.02.2020 05:00:00 7,7 5,6 - - 16 9 - - SSW 1004,6 40 0 0,0
20.02.2020 04:00:00 8,4 5,9 - - 15 8 - - SSW 1005,4 50 0 0,0
20.02.2020 03:00:00 8,1 6,3 - - 15 8 - - SSW 1006,1 40 0 0,0
20.02.2020 02:00:00 8,2 6,1 - - 21 11 - - SSW 1006,8 30 0 0,0
20.02.2020 01:00:00 8,3 6,1 - - 22 12 - - SW 1007,3 40 0 0,0
20.02.2020 00:00:00 8,5 6,0 - - 18 10 - - SW 1007,8 45 - 0,0
19.02.2020 23:00:00 8,3 6,2 - - 18 10 - - SSW 1008,5 35 0 0,0
19.02.2020 22:00:00 8,7 6,4 - - 22 12 - - SW 1009,0 50 0 0,0
19.02.2020 21:00:00 7,7 6,5 - - 16 9 - - SSW 1009,6 17 0 0,0
19.02.2020 20:00:00 7,6 6,6 - - 22 12 - - SW 1010,1 17 0 0,0
19.02.2020 19:00:00 7,2 6,6 - - 22 12 - - SW 1010,7 9 0 0,2
19.02.2020 18:00:00 6,6 5,8 - - 21 11 - - SSW 1011,5 4,5 0 0,2
19.02.2020 17:00:00 6,5 5,6 - - 18 10 - - SSW 1012,1 12 0 0,4
19.02.2020 16:00:00 6,2 5,3 - - 16 9 - - SSW 1013,5 8 0 0,4
19.02.2020 15:00:00 5,9 5,0 - - 18 10 - - SSW 1014,7 10 0 0,4
19.02.2020 14:00:00 5,0 3,9 - - 15 8 - - SSW 1016,1 8 0 0,6
19.02.2020 13:00:00 4,6 3,2 - - 16 9 - - SW 1017,2 9 0 0,2
19.02.2020 12:00:00 4,7 1,7 - - 18 10 - - SW 1018,1 14 0 0,0
19.02.2020 11:00:00 4,4 1,1 - - 16 9 - - SW 1018,6 15 0 0,0
19.02.2020 10:00:00 3,8 0,9 - - 18 10 - - WSW 1018,5 16 0 0,0
19.02.2020 09:00:00 2,8 0,2 5,2 7,2 15 8 - - W 1018,2 15 0 0,0

tt = temperature
td = dewpoint
tt -20cm = temperature -20cm
tt -100cm = temperature -100cm
ff = wind speed
fx = gusts
dd = wind direction
ppp = reduced air pressure
vv = visibility
sd = sunshine duration
rr = precipitation

Next stations